Location: Unspecified
(0.0000°N, 0.0000°E)
Time: 03:54:53
(UTC+00:00)

Envisat - Pass Details

Date: 11 November 2019
Orbit: 764 x 766 km, 98.1° (Epoch: 11 November)

Event Time Altitude Azimuth Distance (km) Brightness Sun altitude
Rises 18:39:28 0° 174° (S) 3,230 6.4 -13.2°
Reaches altitude 10° 18:41:47 10° 177° (S) 2,302 5.7 -13.8°
Maximum altitude 18:46:48 64° 258° (WSW) 846 3.5 -14.9°
Drops below altitude 10° 18:51:48 10° 339° (NNW) 2,291 5.5 -16.1°
Sets 18:54:07 0° 342° (NNW) 3,214 6.2 -16.7°
